Location: São Paulo
(23.5507°S, 46.6334°W)
Time: 13:39:46
(UTC-03:00)

Tiros 1 - Pass Details

Date: 16 February 2026
Orbit: 618 x 649 km, 48.4° (Epoch: 11 March)

Event Time Altitude Azimuth Distance (km) Brightness Sun altitude
Rises 18:17:40 0° 350° (N) 2,891 10.5 5.5°
Reaches altitude 10° 18:20:33 10° 9° (N) 1,998 9.5 4.8°
Maximum altitude 18:23:44 19° 53° (NE) 1,527 8.6 4.1°
Drops below altitude 10° 18:26:57 10° 97° (E) 2,027 9.1 3.4°
Sets 18:29:54 0° 115° (ESE) 2,950 10.0 2.7°
